| time (UTC) | temp F | wind direction | speed MPH | gust MPH | rain 1hr in | rain 24hr in | rain mn in | humidity % | barometer mb |
| 20260504081927 | 46 | 182 | 0.0 | 0.0 | 0.00 | 0.00 | 0.00 | 81 | 1004.2 |
| 20260504081424 | 46 | 182 | 0.0 | 0.0 | 0.00 | 0.00 | 0.00 | 81 | 1004.2 |
| 20260504080920 | 46 | 182 | 0.0 | 0.0 | 0.00 | 0.00 | 0.00 | 81 | 1004.2 |
| 20260504080417 | 46 | 182 | 0.0 | 0.0 | 0.00 | 0.00 | 0.00 | 81 | 1004.3 |
| 20260504070345 | 48 | 182 | 0.0 | 0.0 | 0.00 | 0.00 | 0.00 | 79 | 1004.8 |
| 20260504050732 | 52 | 181 | 0.0 | 0.0 | 0.00 | 0.00 | 0.00 | 71 | 1005.4 |
| 20260504050230 | 52 | 181 | 0.0 | 0.0 | 0.00 | 0.00 | 0.00 | 71 | 1005.5 |
| 20260504045727 | 52 | 181 | 0.0 | 0.0 | 0.00 | 0.00 | 0.00 | 70 | 1005.6 |
| 20260504045227 | 52 | 181 | 0.0 | 0.0 | 0.00 | 0.00 | 0.00 | 70 | 1005.5 |
| 20260504044725 | 52 | 181 | 0.0 | 0.0 | 0.00 | 0.00 | 0.00 | 70 | 1005.5 |
| 20260504044222 | 53 | 181 | 0.0 | 0.0 | 0.00 | 0.00 | 0.00 | 69 | 1005.5 |
| 20260504043719 | 53 | 181 | 0.0 | 0.0 | 0.00 | 0.00 | 0.00 | 70 | 1005.5 |
| 20260504043215 | 52 | 181 | 0.0 | 0.0 | 0.00 | 0.00 | 0.00 | 70 | 1005.4 |
| 20260504042713 | 52 | 181 | 0.0 | 0.0 | 0.00 | 0.00 | 0.00 | 70 | 1005.6 |
| 20260504042209 | 53 | 181 | 0.0 | 0.0 | 0.00 | 0.00 | 0.00 | 69 | 1005.4 |
| 20260504041705 | 53 | 181 | 0.0 | 0.0 | 0.00 | 0.00 | 0.00 | 69 | 1005.4 |
| 20260504041201 | 53 | 181 | 0.0 | 0.0 | 0.00 | 0.00 | 0.00 | 69 | 1005.6 |
| 20260504040658 | 53 | 181 | 0.0 | 0.0 | 0.00 | 0.00 | 0.00 | 69 | 1005.5 |
| 20260504040155 | 53 | 181 | 0.0 | 0.0 | 0.00 | 0.00 | 0.00 | 68 | 1005.8 |
| 20260504035652 | 53 | 181 | 0.0 | 0.0 | 0.00 | 0.00 | 0.00 | 68 | 1005.6 |
| 20260504035149 | 53 | 181 | 0.0 | 0.0 | 0.00 | 0.00 | 0.00 | 67 | 1005.5 |
| 20260504034647 | 53 | 181 | 0.0 | 0.0 | 0.00 | 0.00 | 0.00 | 67 | 1005.7 |
| 20260504034143 | 54 | 181 | 0.0 | 0.0 | 0.00 | 0.00 | 0.00 | 66 | 1005.8 |
| 20260504033641 | 54 | 181 | 0.0 | 0.0 | 0.00 | 0.00 | 0.00 | 67 | 1005.8 |
| 20260504033138 | 54 | 181 | 0.0 | 0.0 | 0.00 | 0.00 | 0.00 | 66 | 1005.8 |
| 20260504032635 | 54 | 181 | 0.0 | 0.0 | 0.00 | 0.00 | 0.00 | 65 | 1005.9 |
| 20260504032132 | 55 | 181 | 0.0 | 0.0 | 0.00 | 0.00 | 0.00 | 65 | 1005.9 |
| 20260504031629 | 55 | 181 | 0.0 | 0.0 | 0.00 | 0.00 | 0.00 | 65 | 1005.8 |
| 20260504031125 | 55 | 181 | 0.0 | 0.0 | 0.00 | 0.00 | 0.00 | 64 | 1005.8 |
| 20260504030622 | 56 | 181 | 0.0 | 0.0 | 0.00 | 0.00 | 0.00 | 63 | 1005.8 |
| 20260504030119 | 56 | 181 | 0.0 | 0.0 | 0.00 | 0.00 | 0.00 | 63 | 1005.9 |
| 20260504025616 | 56 | 181 | 0.0 | 0.0 | 0.00 | 0.00 | 0.00 | 61 | 1005.9 |
| 20260504025113 | 56 | 181 | 0.0 | 0.0 | 0.00 | 0.00 | 0.00 | 61 | 1005.8 |
| 20260504024610 | 56 | 181 | 0.0 | 0.0 | 0.00 | 0.00 | 0.00 | 61 | 1005.6 |
| 20260504024107 | 56 | 181 | 0.0 | 0.0 | 0.00 | 0.00 | 0.00 | 61 | 1005.7 |
| 20260504023603 | 56 | 181 | 0.0 | 0.0 | 0.00 | 0.00 | 0.00 | 61 | 1005.7 |
| 20260504023059 | 57 | 181 | 0.0 | 0.0 | 0.00 | 0.00 | 0.00 | 61 | 1005.8 |
| 20260504022555 | 57 | 181 | 0.0 | 0.0 | 0.00 | 0.00 | 0.00 | 61 | 1005.7 |
| 20260504022051 | 57 | 181 | 0.0 | 0.0 | 0.00 | 0.00 | 0.00 | 60 | 1005.5 |
| 20260504021549 | 57 | 181 | 0.0 | 0.0 | 0.00 | 0.00 | 0.00 | 60 | 1005.4 |
| 20260504021046 | 57 | 181 | 0.0 | 0.0 | 0.00 | 0.00 | 0.00 | 60 | 1005.6 |
| 20260504020543 | 58 | 181 | 0.0 | 0.0 | 0.00 | 0.00 | 0.00 | 59 | 1005.6 |
| 20260504020039 | 58 | 181 | 0.0 | 0.0 | 0.00 | 0.00 | 0.00 | 58 | 1005.5 |
| 20260504015536 | 58 | 181 | 0.0 | 0.0 | 0.00 | 0.00 | 0.00 | 58 | 1005.5 |
| 20260504015032 | 58 | 181 | 0.0 | 0.0 | 0.00 | 0.00 | 0.00 | 58 | 1005.5 |
| 20260504014528 | 59 | 181 | 0.0 | 0.0 | 0.00 | 0.00 | 0.00 | 57 | 1005.4 |
| 20260504014025 | 59 | 181 | 0.0 | 0.0 | 0.00 | 0.00 | 0.00 | 56 | 1005.3 |
| 20260504013523 | 59 | 181 | 0.0 | 0.0 | 0.00 | 0.00 | 0.00 | 56 | 1005.3 |
| 20260504013020 | 59 | 181 | 0.0 | 0.0 | 0.00 | 0.00 | 0.00 | 55 | 1005.3 |
| 20260504012517 | 60 | 181 | 0.0 | 0.0 | 0.00 | 0.00 | 0.00 | 55 | 1005.6 |
| 20260504012015 | 60 | 181 | 0.0 | 0.0 | 0.00 | 0.00 | 0.00 | 54 | 1005.6 |
| 20260504011511 | 60 | 181 | 0.0 | 0.0 | 0.00 | 0.00 | 0.00 | 54 | 1005.6 |
| 20260504011008 | 61 | 181 | 0.0 | 0.0 | 0.00 | 0.00 | 0.00 | 54 | 1005.4 |
| 20260504010503 | 61 | 181 | 0.0 | 0.0 | 0.00 | 0.00 | 0.00 | 53 | 1005.4 |
| 20260504005959 | 61 | 181 | 0.0 | 0.0 | 0.00 | 0.00 | 0.00 | 53 | 1005.4 |
| 20260504005456 | 62 | 181 | 0.0 | 0.0 | 0.00 | 0.00 | 0.00 | 52 | 1005.5 |
| 20260504004954 | 62 | 181 | 0.0 | 0.0 | 0.00 | 0.00 | 0.00 | 52 | 1005.3 |
| 20260504004451 | 63 | 181 | 0.0 | 0.0 | 0.00 | 0.00 | 0.00 | 51 | 1005.3 |
| 20260504003948 | 63 | 181 | 0.0 | 0.0 | 0.00 | 0.00 | 0.00 | 50 | 1005.2 |
| 20260504003444 | 64 | 181 | 0.0 | 0.0 | 0.00 | 0.00 | 0.00 | 50 | 1005.4 |
| 20260504002941 | 64 | 181 | 0.0 | 0.0 | 0.00 | 0.00 | 0.00 | 49 | 1005.3 |
| 20260504002438 | 64 | 181 | 0.0 | 0.0 | 0.00 | 0.00 | 0.00 | 48 | 1005.3 |
| 20260504001936 | 65 | 181 | 0.0 | 0.0 | 0.00 | 0.00 | 0.00 | 49 | 1005.2 |
| 20260504001433 | 65 | 181 | 0.0 | 0.0 | 0.00 | 0.00 | 0.00 | 48 | 1005.2 |
| 20260504000929 | 65 | 181 | 0.0 | 0.0 | 0.00 | 0.00 | 0.00 | 48 | 1005.2 |
| 20260504000426 | 65 | 181 | 0.0 | 1.0 | 0.00 | 0.00 | 0.00 | 47 | 1005.2 |
| 20260503235924 | 65 | 181 | 0.0 | 0.0 | 0.00 | 0.00 | 0.00 | 46 | 1005.4 |
| 20260503235422 | 65 | 181 | 0.0 | 0.0 | 0.00 | 0.00 | 0.00 | 46 | 1005.2 |
| 20260503234919 | 66 | 181 | 0.0 | 0.0 | 0.00 | 0.00 | 0.00 | 47 | 1005.1 |
| 20260503234416 | 66 | 181 | 0.0 | 0.0 | 0.00 | 0.00 | 0.00 | 46 | 1005.1 |
| 20260503233914 | 66 | 181 | 0.0 | 0.0 | 0.00 | 0.00 | 0.00 | 47 | 1005.0 |
| 20260503233410 | 66 | 181 | 0.0 | 0.0 | 0.00 | 0.00 | 0.00 | 46 | 1005.1 |
| 20260503232907 | 66 | 181 | 0.0 | 0.0 | 0.00 | 0.00 | 0.00 | 45 | 1005.3 |
| 20260503232404 | 66 | 181 | 1.0 | 1.0 | 0.00 | 0.00 | 0.00 | 47 | 1005.4 |
| 20260503231902 | 66 | 181 | 0.0 | 0.0 | 0.00 | 0.00 | 0.00 | 47 | 1005.3 |
| 20260503231359 | 66 | 181 | 0.0 | 1.0 | 0.00 | 0.00 | 0.00 | 47 | 1005.3 |
| 20260503230855 | 66 | 181 | 0.0 | 0.0 | 0.00 | 0.00 | 0.00 | 48 | 1005.1 |
| 20260503230352 | 66 | 181 | 2.0 | 2.0 | 0.00 | 0.00 | 0.00 | 47 | 1005.4 |
| 20260503225850 | 66 | 181 | 0.0 | 0.0 | 0.00 | 0.00 | 0.00 | 48 | 1005.5 |
| 20260503225345 | 66 | 181 | 0.0 | 1.0 | 0.00 | 0.00 | 0.00 | 47 | 1005.4 |
| 20260503224842 | 66 | 181 | 0.0 | 0.0 | 0.00 | 0.00 | 0.00 | 47 | 1005.6 |
| 20260503224339 | 66 | 181 | 0.0 | 0.0 | 0.00 | 0.00 | 0.00 | 47 | 1005.4 |
| 20260503223837 | 66 | 181 | 0.0 | 0.0 | 0.00 | 0.00 | 0.00 | 47 | 1005.5 |
| 20260503223334 | 66 | 181 | 0.0 | 0.0 | 0.00 | 0.00 | 0.00 | 48 | 1005.6 |
| 20260503222830 | 66 | 181 | 0.0 | 0.0 | 0.00 | 0.00 | 0.00 | 47 | 1005.8 |
| 20260503222328 | 66 | 181 | 0.0 | 0.0 | 0.00 | 0.00 | 0.00 | 47 | 1005.5 |
| 20260503221826 | 66 | 181 | 0.0 | 1.0 | 0.00 | 0.00 | 0.00 | 48 | 1005.6 |
| 20260503221325 | 66 | 181 | 0.0 | 1.0 | 0.00 | 0.00 | 0.00 | 49 | 1005.6 |
| 20260503220815 | 66 | 181 | 0.0 | 0.0 | 0.00 | 0.00 | 0.00 | 46 | 1005.7 |
| 20260503220312 | 66 | 181 | 1.0 | 1.0 | 0.00 | 0.00 | 0.00 | 47 | 1005.8 |
| 20260503215809 | 66 | 181 | 1.0 | 2.0 | 0.00 | 0.00 | 0.00 | 45 | 1005.8 |
| 20260503215306 | 66 | 181 | 1.0 | 1.0 | 0.00 | 0.00 | 0.00 | 46 | 1005.8 |
| 20260503214804 | 66 | 181 | 1.0 | 2.0 | 0.00 | 0.00 | 0.00 | 46 | 1005.9 |
| 20260503214301 | 66 | 181 | 0.0 | 1.0 | 0.00 | 0.00 | 0.00 | 48 | 1006.0 |
| 20260503213758 | 66 | 181 | 1.0 | 1.0 | 0.00 | 0.00 | 0.00 | 48 | 1005.8 |
| 20260503213255 | 66 | 181 | 1.0 | 1.0 | 0.00 | 0.00 | 0.00 | 45 | 1005.9 |
| 20260503212752 | 66 | 181 | 1.0 | 1.0 | 0.00 | 0.00 | 0.00 | 46 | 1006.0 |
| 20260503212250 | 66 | 181 | 0.0 | 0.0 | 0.00 | 0.00 | 0.00 | 47 | 1006.3 |
| 20260503211747 | 66 | 181 | 0.0 | 1.0 | 0.00 | 0.00 | 0.00 | 47 | 1006.1 |
| 20260503211243 | 66 | 181 | 0.0 | 0.0 | 0.00 | 0.00 | 0.00 | 48 | 1006.0 |
| 20260503210739 | 66 | 181 | 2.0 | 2.0 | 0.00 | 0.00 | 0.00 | 44 | 1006.1 |
| 20260503210237 | 66 | 181 | 1.0 | 1.0 | 0.00 | 0.00 | 0.00 | 48 | 1006.2 |
| 20260503205732 | 66 | 181 | 1.0 | 1.0 | 0.00 | 0.00 | 0.00 | 47 | 1006.2 |
| 20260503205228 | 66 | 181 | 2.0 | 3.0 | 0.00 | 0.00 | 0.00 | 51 | 1006.3 |
| 20260503204724 | 65 | 181 | 1.0 | 1.0 | 0.00 | 0.00 | 0.00 | 51 | 1006.5 |
| 20260503204223 | 65 | 181 | 0.0 | 1.0 | 0.00 | 0.00 | 0.00 | 52 | 1006.5 |
| 20260503203720 | 65 | 181 | 0.0 | 1.0 | 0.00 | 0.00 | 0.00 | 51 | 1006.7 |
| 20260503203217 | 64 | 181 | 1.0 | 2.0 | 0.00 | 0.00 | 0.00 | 53 | 1006.7 |
| 20260503202714 | 64 | 181 | 2.0 | 2.0 | 0.00 | 0.00 | 0.00 | 53 | 1007.0 |
| 20260503202212 | 64 | 181 | 0.0 | 1.0 | 0.00 | 0.00 | 0.00 | 52 | 1006.9 |
| 20260503201710 | 64 | 181 | 1.0 | 1.0 | 0.00 | 0.00 | 0.00 | 52 | 1007.1 |
| 20260503201207 | 64 | 181 | 1.0 | 1.0 | 0.00 | 0.00 | 0.00 | 53 | 1007.2 |
| 20260503200703 | 63 | 181 | 0.0 | 1.0 | 0.00 | 0.00 | 0.00 | 53 | 1007.3 |
| 20260503200159 | 63 | 181 | 0.0 | 1.0 | 0.00 | 0.00 | 0.00 | 52 | 1007.4 |
| 20260503195656 | 63 | 181 | 0.0 | 0.0 | 0.00 | 0.00 | 0.00 | 51 | 1007.7 |
| 20260503195153 | 63 | 181 | 0.0 | 1.0 | 0.00 | 0.00 | 0.00 | 51 | 1007.5 |
| 20260503194650 | 64 | 181 | 0.0 | 0.0 | 0.00 | 0.00 | 0.00 | 48 | 1007.4 |
| 20260503194146 | 64 | 181 | 2.0 | 3.0 | 0.00 | 0.00 | 0.00 | 49 | 1007.5 |
| 20260503193643 | 64 | 181 | 2.0 | 2.0 | 0.00 | 0.00 | 0.00 | 48 | 1007.4 |
| 20260503193138 | 65 | 181 | 2.0 | 4.0 | 0.00 | 0.00 | 0.00 | 45 | 1007.4 |
| 20260503192634 | 65 | 181 | 1.0 | 2.0 | 0.00 | 0.00 | 0.00 | 47 | 1007.7 |
| 20260503192130 | 66 | 181 | 1.0 | 2.0 | 0.00 | 0.00 | 0.00 | 46 | 1007.6 |
| 20260503191627 | 65 | 181 | 1.0 | 1.0 | 0.00 | 0.00 | 0.00 | 49 | 1007.4 |
| 20260503191124 | 65 | 181 | 1.0 | 1.0 | 0.00 | 0.00 | 0.00 | 48 | 1007.7 |
| 20260503190621 | 64 | 181 | 2.0 | 2.0 | 0.00 | 0.00 | 0.00 | 47 | 1007.6 |
| 20260503190118 | 64 | 181 | 1.0 | 2.0 | 0.00 | 0.00 | 0.00 | 47 | 1008.0 |
| 20260503185614 | 64 | 181 | 2.0 | 2.0 | 0.00 | 0.00 | 0.00 | 49 | 1007.7 |
| 20260503185114 | 64 | 181 | 2.0 | 2.0 | 0.00 | 0.00 | 0.00 | 47 | 1007.9 |
| 20260503184609 | 64 | 181 | 1.0 | 2.0 | 0.00 | 0.00 | 0.00 | 49 | 1008.0 |
| 20260503184106 | 64 | 181 | 1.0 | 1.0 | 0.00 | 0.00 | 0.00 | 49 | 1008.0 |
| 20260503183603 | 64 | 181 | 1.0 | 2.0 | 0.00 | 0.00 | 0.00 | 49 | 1008.2 |
| 20260503183100 | 64 | 181 | 0.0 | 0.0 | 0.00 | 0.00 | 0.00 | 51 | 1008.1 |
| 20260503182558 | 63 | 181 | 1.0 | 1.0 | 0.00 | 0.00 | 0.00 | 53 | 1008.3 |
| 20260503182056 | 63 | 181 | 1.0 | 2.0 | 0.00 | 0.00 | 0.00 | 52 | 1008.5 |
| 20260503181553 | 63 | 181 | 1.0 | 2.0 | 0.00 | 0.00 | 0.00 | 56 | 1008.7 |
| 20260503181049 | 63 | 181 | 1.0 | 2.0 | 0.00 | 0.00 | 0.00 | 51 | 1008.6 |
| 20260503180546 | 63 | 181 | 1.0 | 1.0 | 0.00 | 0.00 | 0.00 | 52 | 1008.7 |
| 20260503180044 | 62 | 181 | 1.0 | 2.0 | 0.00 | 0.00 | 0.00 | 54 | 1008.7 |
| 20260503175542 | 62 | 181 | 1.0 | 2.0 | 0.00 | 0.00 | 0.00 | 53 | 1008.8 |
| 20260503175039 | 62 | 181 | 0.0 | 1.0 | 0.00 | 0.00 | 0.00 | 55 | 1008.9 |
| 20260503174536 | 62 | 181 | 1.0 | 2.0 | 0.00 | 0.00 | 0.00 | 56 | 1009.0 |
| 20260503174032 | 61 | 181 | 1.0 | 1.0 | 0.00 | 0.00 | 0.00 | 54 | 1009.1 |
| 20260503173527 | 61 | 181 | 0.0 | 0.0 | 0.00 | 0.00 | 0.00 | 57 | 1009.4 |
| 20260503173023 | 61 | 181 | 1.0 | 2.0 | 0.00 | 0.00 | 0.00 | 54 | 1009.5 |
| 20260503172521 | 61 | 181 | 1.0 | 1.0 | 0.00 | 0.00 | 0.00 | 53 | 1009.6 |
| 20260503172018 | 60 | 181 | 1.0 | 2.0 | 0.00 | 0.00 | 0.00 | 55 | 1009.6 |
| 20260503171514 | 59 | 181 | 1.0 | 1.0 | 0.00 | 0.00 | 0.00 | 60 | 1009.9 |
| 20260503171012 | 59 | 181 | 0.0 | 0.0 | 0.00 | 0.00 | 0.00 | 55 | 1009.9 |
| 20260503170508 | 60 | 181 | 1.0 | 2.0 | 0.00 | 0.00 | 0.00 | 56 | 1010.0 |
| 20260503150855 | 58 | 181 | 1.0 | 1.0 | 0.00 | 0.00 | 0.00 | 54 | 1011.1 |
| 20260503150351 | 59 | 181 | 2.0 | 2.0 | 0.00 | 0.00 | 0.00 | 53 | 1011.2 |
| 20260503140315 | 60 | 180 | 0.0 | 1.0 | 0.00 | 0.00 | 0.00 | 50 | 1011.7 |
| 20260503131244 | 56 | 181 | 1.0 | 1.0 | 0.00 | 0.00 | 0.00 | 53 | 1012.5 |
| 20260503130742 | 53 | 181 | 0.0 | 1.0 | 0.00 | 0.00 | 0.00 | 56 | 1012.3 |
| 20260503130239 | 53 | 181 | 0.0 | 0.0 | 0.00 | 0.00 | 0.00 | 56 | 1012.3 |
| 20260503120206 | 50 | 181 | 0.0 | 0.0 | 0.00 | 0.00 | 0.00 | 54 | 1012.2 |
| 20260503110632 | 49 | 182 | 1.0 | 1.0 | 0.00 | 0.00 | 0.00 | 55 | 1012.1 |
| 20260503110129 | 49 | 182 | 0.0 | 0.0 | 0.00 | 0.00 | 0.00 | 55 | 1012.2 |